SWISSCUBE

Last updated on Sun Jun 21 2026 00:03:20 GMT+0000 (Coordinated Universal Time)

1 35932U 09051B 26171.17902305 .00000711 00000+0 15003-3 0 9991 2 35932 98.4033 79.1195 0006171 192.6984 167.4062 14.62486325889593
UTC large
Height (km)
Speed (km/s)
/
Latitude / Longitude
Inclination (degrees)
Orbital Period (minutes)
Azimuth
Elevation
Range (km)
Doppler Factor

Next 0 passes for location: London (51.5072 / 0.1276)

No passes found over London.
SWISSCUBE